Temp
-15 -15 -15 -15 -15 -15 -15 -15 -14 -14 -14 -14 -14 -14 -13 -13 -13 -13 -13 -13 -13 -13 -13 -14 -14 -14 -14 -14 -14 -14 -14 -14 -14 -14 -14 -14 -14 -14 -14 -14 -14 -14
-15 -15 -15 -15 -15 -15 -15 -15 -15 -15 -15 -14 -14 -14 -14 -14 -14 -14 -14 -14 -14 -14 -14 -14 -14 -14 -14 -14 -14 -14 -14 -14 -14 -14 -14 -14 -14 -14 -14 -14 -14 -14
-16 -16 -16 -16 -16 -16 -16 -15 -15 -15 -15 -15 -14 -14 -14 -14 -14 -14 -14 -14 -14 -14 -14 -14 -14 -14 -14 -14 -14 -14 -14 -14 -14 -14 -14 -14 -14 -14 -14 -14 -14 -14
-16 -16 -16 -16 -16 -16 -16 -16 -15 -15 -15 -15 -15 -14 -14 -14 -14 -14 -14 -14 -14 -14 -14 -14 -14 -14 -14 -15 -15 -15 -15 -15 -15 -15 -15 -15 -15 -14 -14 -14 -14 -14
-16 -16 -16 -16 -16 -16 -16 -16 -16 -15 -15 -15 -15 -15 -15 -15 -14 -14 -14 -14 -14 -14 -14 -14 -14 -14 -15 -15 -15 -15 -15 -15 -15 -15 -15 -15 -15 -15 -14 -14 -14 -14
-16 -16 -16 -17 -17 -16 -16 -16 -16 -16 -16 -15 -15 -15 -15 -15 -15 -15 -15 -15 -15 -14 -14 -14 -14 -15 -15 -15 -15 -15 -15 -15 -15 -15 -15 -15 -15 -15 -15 -14 -14 -14
-16 -16 -17 -17 -17 -17 -17 -16 -16 -16 -16 -16 -16 -16 -16 -16 -16 -15 -15 -15 -15 -15 -15 -15 -15 -15 -15 -15 -15 -15 -15 -15 -15 -15 -15 -15 -15 -15 -15 -14 -14 -14
-17 -17 -17 -17 -17 -17 -17 -17 -17 -17 -16 -16 -16 -16 -16 -16 -16 -16 -16 -16 -16 -15 -15 -15 -15 -15 -15 -16 -16 -16 -16 -15 -15 -15 -15 -15 -15 -15 -15 -15 -14 -14
-17 -17 -17 -17 -17 -17 -17 -17 -17 -17 -16 -16 -16 -16 -16 -16 -16 -16 -16 -16 -16 -16 -16 -16 -16 -16 -16 -16 -16 -16 -16 -16 -16 -15 -15 -15 -15 -15 -15 -15 -14 -14
-17 -17 -17 -17 -17 -17 -17 -17 -17 -17 -17 -16 -16 -16 -16 -16 -16 -16 -16 -16 -16 -16 -16 -16 -16 -16 -16 -16 -16 -16 -16 -16 -16 -16 -15 -15 -15 -15 -15 -15 -15 -14
-17 -17 -17 -17 -17 -17 -17 -17 -17 -17 -17 -17 -16 -16 -16 -16 -16 -16 -16 -16 -16 -16 -16 -16 -16 -16 -16 -16 -16 -16 -16 -16 -16 -16 -16 -16 -16 -15 -15 -15 -15 -15
-17 -17 -17 -17 -17 -17 -17 -17 -17 -17 -17 -17 -17 -16 -16 -16 -16 -16 -16 -16 -16 -16 -16 -16 -16 -16 -17 -16 -16 -16 -16 -16 -16 -16 -16 -16 -16 -16 -16 -15 -15 -15
-17 -17 -17 -17 -17 -17 -17 -17 -17 -17 -17 -17 -17 -17 -17 -17 -17 -17 -16 -16 -16 -16 -16 -16 -16 -17 -17 -17 -17 -17 -16 -16 -16 -16 -16 -16 -16 -16 -16 -16 -16 -15
-17 -17 -17 -17 -17 -17 -17 -17 -17 -17 -17 -17 -17 -17 -17 -17 -17 -17 -17 -17 -16 -16 -17 -17 -17 -17 -17 -17 -17 -17 -17 -17 -16 -16 -16 -16 -16 -16 -16 -16 -16 -16
-17 -17 -17 -17 -17 -17 -17 -17 -17 -17 -17 -17 -17 -17 -17 -17 -17 -17 -17 -17 -17 -17 -17 -17 -17 -17 -17 -17 -17 -17 -17 -17 -17 -16 -16 -16 -16 -16 -16 -16 -16 -16
-17 -17 -17 -17 -17 -17 -17 -17 -17 -17 -17 -17 -17 -17 -17 -17 -17 -17 -17 -17 -17 -17 -17 -17 -17 -17 -17 -17 -17 -17 -17 -17 -17 -17 -17 -17 -17 -16 -16 -16 -16 -16
-17 -17 -17 -17 -18 -18 -18 -18 -17 -17 -17 -17 -17 -17 -17 -17 -17 -17 -17 -17 -17 -17 -17 -17 -17 -17 -17 -17 -17 -17 -17 -17 -17 -17 -17 -17 -17 -17 -17 -16 -16 -16
-17 -18 -18 -18 -18 -18 -18 -18 -18 -18 -18 -18 -17 -17 -17 -17 -17 -17 -17 -17 -17 -17 -17 -17 -17 -17 -17 -17 -17 -17 -17 -17 -17 -17 -17 -17 -17 -17 -17 -17 -17 -16
-18 -18 -18 -18 -18 -18 -18 -18 -18 -18 -18 -18 -18 -18 -18 -18 -18 -18 -18 -18 -18 -18 -18 -18 -18 -18 -18 -17 -17 -17 -17 -17 -17 -17 -17 -17 -17 -17 -17 -17 -17 -17
-18 -18 -18 -18 -18 -18 -18 -18 -18 -18 -18 -18 -18 -18 -18 -18 -18 -18 -18 -18 -18 -18 -18 -18 -18 -18 -18 -18 -18 -18 -18 -17 -17 -17 -17 -17 -17 -17 -17 -17 -17 -17
-18 -18 -18 -18 -18 -18 -18 -18 -18 -18 -18 -18 -18 -18 -18 -18 -18 -19 -19 -19 -19 -19 -19 -19 -19 -19 -19 -18 -18 -18 -18 -18 -18 -18 -18 -17 -17 -17 -17 -17 -17 -17
-18 -18 -18 -18 -18 -18 -18 -18 -18 -18 -19 -19 -19 -19 -19 -19 -19 -19 -19 -19 -19 -19 -19 -19 -19 -19 -19 -19 -19 -19 -19 -18 -18 -18 -18 -18 -18 -18 -17 -17 -17 -17
-18 -18 -19 -19 -19 -19 -19 -19 -19 -19 -19 -19 -19 -19 -19 -19 -19 -19 -19 -19 -19 -19 -19 -19 -19 -19 -19 -19 -19 -19 -19 -19 -19 -19 -18 -18 -18 -18 -18 -18 -17 -17
-19 -19 -19 -19 -19 -19 -19 -19 -19 -19 -19 -19 -20 -20 -20 -20 -20 -20 -20 -20 -20 -20 -20 -19 -19 -19 -19 -19 -19 -19 -19 -19 -19 -19 -19 -19 -18 -18 -18 -18 -18 -18
-19 -19 -19 -19 -19 -19 -20 -20 -20 -20 -20 -20 -20 -20 -20 -20 -20 -20 -20 -20 -20 -20 -20 -20 -20 -20 -20 -20 -20 -20 -20 -20 -19 -19 -19 -19 -19 -19 -19 -18 -18 -18
-19 -19 -19 -20 -20 -20 -20 -20 -20 -20 -20 -20 -20 -20 -20 -20 -20 -20 -20 -20 -20 -20 -20 -20 -20 -20 -20 -20 -20 -20 -20 -20 -20 -20 -20 -20 -20 -20 -20 -19 -19 -19
Height
5795 5794 5793 5793 5792 5791 5790 5790 5789 5788 5787 5786 5785 5783 5782 5781 5780 5779 5777 5776 5774 5773 5772 5770 5770 5769 5767 5766 5765 5764 5763 5763 5762 5761 5760 5759 5757 5755 5754 5753 5751 5749
5792 5791 5791 5790 5789 5788 5787 5786 5785 5784 5783 5782 5781 5779 5778 5777 5776 5775 5773 5772 5770 5769 5767 5766 5765 5764 5763 5761 5760 5759 5758 5757 5757 5756 5755 5754 5752 5751 5749 5748 5746 5744
5789 5789 5788 5787 5786 5785 5784 5782 5781 5780 5779 5778 5777 5775 5774 5772 5772 5771 5769 5768 5766 5765 5763 5762 5761 5759 5758 5757 5756 5755 5754 5753 5752 5751 5750 5749 5747 5746 5744 5743 5741 5740
5786 5785 5784 5783 5782 5781 5780 5778 5777 5776 5775 5774 5773 5771 5769 5768 5767 5766 5764 5763 5762 5761 5759 5758 5756 5755 5753 5752 5751 5750 5749 5748 5747 5746 5745 5744 5742 5741 5739 5738 5737 5735
5783 5782 5781 5780 5779 5778 5776 5775 5773 5772 5771 5770 5768 5767 5765 5763 5762 5761 5760 5759 5757 5756 5755 5753 5752 5750 5749 5748 5746 5745 5744 5743 5742 5741 5740 5739 5738 5736 5734 5733 5732 5730
5780 5779 5778 5777 5776 5774 5773 5771 5770 5768 5767 5766 5764 5762 5761 5759 5758 5757 5755 5754 5753 5751 5750 5749 5747 5746 5744 5743 5742 5740 5739 5738 5737 5736 5735 5734 5733 5731 5729 5728 5727 5725
5777 5776 5775 5773 5772 5771 5769 5767 5766 5764 5763 5762 5760 5759 5757 5755 5754 5753 5751 5750 5748 5747 5745 5744 5743 5741 5740 5738 5737 5736 5734 5733 5732 5731 5730 5729 5728 5727 5724 5723 5722 5720
5773 5772 5771 5769 5768 5766 5765 5764 5762 5761 5759 5758 5756 5755 5753 5752 5750 5749 5747 5745 5744 5742 5740 5739 5738 5736 5735 5733 5732 5731 5729 5728 5727 5726 5725 5724 5723 5721 5720 5718 5716 5715
5769 5768 5766 5765 5764 5762 5761 5760 5758 5756 5755 5754 5752 5750 5749 5747 5745 5744 5742 5740 5739 5737 5735 5734 5732 5731 5729 5728 5727 5726 5724 5723 5721 5720 5720 5719 5717 5716 5714 5713 5711 5710
5764 5763 5762 5761 5759 5758 5757 5755 5754 5752 5750 5749 5747 5745 5744 5742 5740 5739 5737 5735 5733 5732 5730 5728 5727 5725 5724 5722 5721 5720 5719 5717 5716 5715 5714 5713 5712 5711 5709 5708 5706 5705
5760 5759 5758 5756 5755 5754 5752 5751 5749 5747 5745 5743 5741 5740 5738 5736 5735 5733 5731 5729 5728 5726 5725 5723 5722 5720 5718 5716 5715 5713 5713 5712 5711 5709 5708 5707 5706 5705 5704 5703 5701 5700
5755 5754 5753 5752 5751 5749 5747 5746 5744 5742 5740 5738 5736 5734 5732 5731 5729 5727 5725 5724 5722 5720 5719 5718 5716 5714 5713 5711 5709 5707 5706 5705 5704 5704 5703 5702 5701 5700 5699 5697 5696 5695
5751 5750 5749 5747 5746 5744 5742 5741 5739 5737 5735 5733 5731 5729 5727 5725 5723 5722 5720 5718 5716 5715 5713 5712 5710 5709 5707 5705 5703 5702 5700 5699 5698 5697 5696 5696 5695 5694 5693 5692 5691 5689
5746 5745 5744 5742 5741 5739 5737 5735 5734 5732 5729 5728 5726 5724 5722 5720 5718 5716 5714 5713 5711 5709 5707 5706 5704 5702 5701 5700 5698 5696 5694 5692 5691 5690 5690 5689 5688 5688 5687 5686 5685 5684
5742 5741 5739 5737 5736 5734 5732 5730 5728 5726 5725 5723 5721 5720 5718 5715 5713 5710 5708 5707 5705 5703 5701 5699 5698 5696 5694 5693 5692 5690 5688 5686 5685 5683 5683 5682 5682 5681 5680 5680 5679 5678
5737 5736 5734 5732 5731 5729 5727 5725 5723 5722 5720 5718 5717 5715 5713 5710 5708 5705 5703 5701 5699 5697 5695 5693 5691 5689 5687 5686 5685 5684 5682 5680 5678 5677 5675 5675 5675 5674 5673 5673 5673 5672
5732 5731 5729 5728 5726 5724 5722 5721 5719 5717 5715 5713 5712 5709 5707 5705 5703 5700 5698 5696 5693 5691 5689 5686 5684 5682 5680 5679 5677 5676 5675 5673 5672 5670 5668 5667 5667 5667 5666 5665 5665 5665
5728 5726 5725 5723 5722 5720 5718 5716 5715 5713 5711 5708 5706 5704 5702 5700 5697 5695 5692 5690 5687 5685 5682 5679 5677 5674 5672 5670 5669 5667 5666 5665 5664 5662 5661 5660 5659 5658 5658 5658 5658 5657
5723 5722 5720 5719 5717 5716 5714 5712 5710 5708 5706 5703 5701 5699 5697 5694 5691 5689 5686 5683 5680 5678 5675 5673 5670 5667 5664 5662 5660 5658 5657 5656 5654 5653 5652 5651 5650 5649 5649 5649 5650 5650
5719 5718 5716 5715 5713 5712 5710 5708 5706 5703 5701 5698 5696 5694 5692 5689 5686 5683 5680 5677 5674 5671 5669 5666 5663 5660 5657 5654 5652 5649 5647 5646 5645 5643 5642 5641 5640 5640 5640 5640 5640 5641
5715 5714 5712 5711 5709 5707 5705 5703 5701 5699 5696 5693 5691 5689 5686 5684 5681 5678 5675 5672 5669 5666 5663 5660 5657 5654 5651 5647 5644 5641 5638 5636 5634 5633 5632 5631 5630 5630 5629 5630 5630 5631
5711 5709 5708 5706 5704 5702 5700 5699 5696 5694 5691 5688 5686 5683 5681 5678 5676 5673 5669 5666 5664 5660 5657 5654 5651 5647 5644 5641 5638 5634 5631 5627 5625 5623 5621 5620 5619 5619 5618 5618 5619 5620
5707 5705 5704 5702 5700 5698 5696 5694 5692 5689 5686 5684 5681 5678 5676 5673 5671 5668 5665 5661 5658 5655 5651 5648 5644 5641 5637 5634 5630 5627 5623 5620 5616 5613 5610 5609 5607 5607 5607 5607 5607 5608
5703 5701 5700 5698 5696 5693 5691 5690 5687 5684 5682 5679 5677 5674 5671 5668 5666 5663 5659 5656 5653 5649 5645 5641 5637 5633 5630 5626 5622 5618 5615 5611 5607 5603 5600 5598 5596 5595 5594 5595 5595 5596
5699 5697 5695 5694 5692 5689 5687 5685 5683 5681 5678 5676 5673 5670 5667 5664 5661 5657 5654 5650 5647 5643 5639 5635 5630 5626 5622 5618 5614 5610 5605 5601 5597 5593 5590 5587 5584 5582 5582 5582 5583 5584
5695 5693 5691 5690 5688 5686 5684 5682 5680 5677 5675 5672 5669 5666 5662 5659 5655 5652 5648 5645 5641 5637 5633 5629 5624 5620 5615 5611 5606 5601 5596 5591 5587 5583 5579 5575 5573 5571 5569 5569 5570 5571
Wind_Speed
31 31 31 31 32 32 32 32 33 32 32 32 32 32 32 32 32 33 33 34 35 36 36 36 35 35 34 34 34 33 33 33 33 33 33 32 32 33 33 33 34 35
31 31 31 32 33 33 33 34 34 34 34 34 33 33 33 33 33 33 34 35 36 37 37 37 37 36 36 36 35 35 35 34 34 34 34 33 34 34 34 34 35 36
32 32 32 33 34 35 35 36 36 36 36 35 35 35 35 35 34 35 35 36 36 37 38 38 38 38 37 37 36 36 36 36 35 35 35 34 35 35 35 35 35 36
33 33 33 35 36 37 37 38 38 38 37 36 36 36 36 36 36 36 37 37 37 38 39 39 39 39 39 38 38 37 37 37 36 36 35 35 35 36 36 36 36 36
34 34 35 36 37 38 39 40 40 39 38 38 38 38 37 37 37 38 38 38 39 40 40 41 40 40 40 39 39 38 37 37 37 36 36 35 35 36 36 36 36 36
36 35 36 37 38 39 40 41 41 40 40 40 40 39 39 38 39 39 40 40 41 42 42 43 42 41 41 40 40 39 38 38 37 37 36 36 35 36 36 36 36 36
37 37 37 39 40 41 41 42 43 42 42 42 41 40 39 40 40 41 42 42 43 43 44 44 44 43 42 41 41 40 40 40 39 38 38 37 36 36 36 37 36 35
38 38 39 41 42 42 43 44 44 44 44 44 42 41 41 41 42 43 43 43 43 44 45 45 45 44 43 42 41 41 41 41 40 40 39 38 37 36 36 36 35 35
39 40 41 42 43 44 45 45 46 46 46 44 43 42 42 43 43 43 43 43 43 43 44 44 44 44 43 42 42 41 40 41 41 40 39 38 37 36 35 35 35 34
40 41 43 44 45 46 46 47 47 47 46 44 44 44 44 44 44 44 43 43 43 43 43 44 43 43 43 42 42 41 40 40 40 40 39 38 36 35 34 34 34 34
41 43 44 46 46 47 48 48 48 47 46 45 45 45 44 44 44 44 44 44 44 43 43 43 43 43 42 42 42 42 41 40 40 40 39 38 36 35 34 34 34 33
43 44 46 47 48 48 49 49 48 47 46 46 46 45 45 45 45 44 44 44 44 44 44 43 43 43 42 42 42 42 42 42 41 40 40 38 37 36 35 35 35 35
45 46 47 48 49 49 48 48 47 46 46 45 45 45 45 45 44 44 44 44 45 45 45 45 44 43 43 43 43 43 43 44 43 42 41 40 39 38 37 36 36 36
46 47 48 48 48 48 46 46 45 45 45 45 45 45 45 44 44 44 45 46 46 46 46 46 45 45 44 44 44 44 45 45 45 45 44 43 41 40 39 38 37 37
47 47 47 47 46 45 45 44 44 45 45 45 45 45 44 45 46 48 48 48 48 47 47 47 47 46 46 45 45 45 45 46 46 46 46 45 44 42 41 40 39 38
46 46 45 44 44 43 44 44 44 45 45 45 45 46 46 47 49 49 49 49 49 49 49 49 49 49 49 49 48 48 47 47 48 48 48 47 46 45 44 42 41 40
44 43 42 42 42 42 43 44 45 45 46 47 47 48 48 49 49 49 49 50 51 52 52 53 53 53 53 53 52 52 51 51 51 51 51 50 49 48 47 45 44 42
41 40 40 41 41 42 44 45 46 46 47 47 47 48 48 49 50 51 52 53 53 54 54 55 55 55 56 55 55 55 54 54 54 54 54 53 53 51 50 49 47 45
38 39 40 41 42 44 44 45 45 45 45 46 46 47 49 50 51 52 53 53 54 54 54 54 55 55 56 56 56 56 56 55 55 55 55 55 55 55 54 52 50 49
38 40 41 42 42 42 42 42 43 43 44 46 47 48 49 50 51 51 52 52 53 53 54 54 54 54 55 55 56 56 56 56 55 55 55 55 56 56 56 55 54 52
39 40 40 40 40 40 40 41 42 44 45 46 47 47 48 48 49 49 50 51 51 52 52 53 53 53 54 55 55 56 57 57 57 56 56 55 55 55 56 56 55 54
38 38 38 38 39 40 41 42 43 44 44 45 45 46 46 47 48 49 50 50 51 51 51 52 53 53 54 54 55 56 57 58 58 58 58 57 56 56 56 56 55 55
37 37 37 38 39 40 40 41 41 42 42 43 44 45 47 47 48 49 49 50 50 51 52 52 53 54 54 55 55 56 56 57 58 59 59 59 58 57 56 56 56 55
35 36 36 37 38 38 38 39 39 40 41 43 44 46 47 47 48 49 49 50 51 52 52 53 54 55 55 55 56 57 57 58 59 59 59 59 59 59 57 56 56 56
34 35 35 36 36 36 36 37 38 40 42 43 44 45 46 47 48 49 49 50 51 52 53 53 54 54 54 55 56 58 59 60 60 59 59 58 58 58 57 56 56 56
33 33 33 33 33 34 36 37 39 40 42 43 44 45 46 47 48 48 49 50 51 51 52 52 52 53 54 55 57 59 60 61 60 59 57 56 55 55 55 55 55 55
Wind_Direction
283 285 288 290 291 292 293 292 292 292 293 294 295 296 295 294 294 294 294 296 297 298 300 301 301 300 298 296 295 293 291 288 287 286 287 288 288 288 288 288 289 290
283 286 289 290 292 293 294 295 294 294 294 294 295 296 297 296 295 295 295 295 296 297 299 300 300 299 298 296 295 293 292 290 289 288 288 288 288 288 289 289 290 291
282 286 288 291 294 296 297 296 296 295 294 294 295 297 297 297 296 296 296 295 295 296 297 298 298 298 296 295 294 292 291 290 290 289 289 289 289 289 290 290 290 291
282 286 290 294 296 298 298 297 296 296 296 296 298 299 298 297 297 296 296 295 295 295 296 296 296 296 296 295 293 292 291 291 290 290 290 289 290 290 290 290 291 291
282 287 291 294 296 298 298 298 298 298 298 300 301 301 300 298 297 296 295 295 295 295 295 295 295 295 295 294 292 291 291 290 290 289 289 289 289 290 290 290 291 292
280 285 289 293 295 296 298 299 299 300 300 302 303 303 301 300 298 297 296 295 295 294 294 294 294 293 293 292 291 290 289 289 289 289 289 290 290 290 290 291 291 292
279 284 289 292 294 296 298 299 300 301 302 303 303 303 301 300 299 297 297 296 295 294 293 293 293 292 292 291 290 290 289 289 288 288 289 290 291 291 290 290 290 291
279 284 288 291 293 295 297 298 300 301 302 302 302 301 301 300 299 298 297 295 294 294 293 292 292 292 292 291 290 290 289 289 289 289 290 291 292 292 290 290 289 290
280 284 286 290 292 294 295 297 298 300 301 301 301 301 300 300 299 297 296 295 294 293 293 292 292 292 291 291 291 290 289 289 289 289 291 292 293 292 291 290 289 289
281 284 286 289 291 293 294 296 297 299 300 300 300 300 300 299 298 297 296 295 294 294 293 293 293 292 292 292 291 290 289 289 289 290 291 292 292 292 291 290 288 288
282 284 287 289 291 292 294 295 296 298 299 299 299 299 299 298 297 297 296 295 294 294 293 293 293 293 293 292 292 291 290 289 289 290 290 291 291 291 290 289 288 288
282 285 287 289 290 292 293 294 296 297 298 299 299 299 299 298 297 297 296 296 295 294 294 293 292 292 292 292 292 291 291 290 289 289 289 290 290 289 289 288 287 288
283 285 287 289 290 292 293 295 296 297 298 299 299 299 298 298 297 297 298 298 297 296 295 294 293 293 292 292 292 291 291 290 290 289 289 289 288 288 287 287 287 287
284 286 287 289 291 293 294 296 297 298 298 299 299 298 298 298 298 299 300 299 299 298 297 296 295 294 293 293 292 292 291 291 290 289 289 288 288 287 286 286 286 286
284 286 288 290 292 294 295 296 297 298 298 298 298 298 298 299 300 301 301 300 299 299 298 298 297 296 295 294 293 293 292 291 291 290 289 288 287 287 286 285 284 284
285 288 290 292 294 295 297 297 298 298 298 298 298 298 299 299 300 301 301 301 300 300 300 299 299 298 297 296 295 294 293 292 291 291 290 289 288 287 286 285 283 282
288 291 293 294 295 297 297 298 298 298 298 298 298 299 299 300 301 301 302 301 301 301 300 300 299 298 297 296 295 294 293 292 291 290 289 288 288 287 286 285 284 282
290 292 294 295 295 296 297 297 297 298 298 299 300 301 302 302 303 303 303 302 302 301 300 300 299 298 297 295 294 293 291 290 289 288 287 286 286 285 285 284 283 282
291 292 293 294 295 295 296 297 298 299 300 301 302 303 304 304 304 303 303 303 302 302 301 301 300 300 299 298 296 295 293 291 289 287 285 284 283 282 282 281 281 280
291 292 293 294 295 296 297 299 300 302 303 304 304 305 305 305 305 305 305 304 304 304 304 303 303 303 302 301 300 298 296 294 292 290 287 284 282 280 279 278 277 277
292 293 295 296 297 298 300 302 303 304 305 305 305 305 306 306 306 306 306 306 306 306 306 306 305 305 304 303 302 301 299 297 295 292 289 286 283 280 278 276 274 273
294 295 296 298 300 301 303 304 305 305 306 306 307 307 307 308 308 308 308 307 307 307 306 306 305 305 304 303 302 301 300 299 297 294 291 288 284 281 278 275 273 271
295 296 298 300 302 303 304 305 306 307 308 309 309 310 309 309 308 308 308 307 307 307 306 306 306 305 304 303 303 302 301 300 298 296 293 290 286 282 278 274 271 269
296 298 299 301 302 304 305 307 309 310 310 311 310 310 309 309 309 308 308 308 308 307 307 307 307 307 306 306 305 304 303 302 300 297 294 291 287 283 279 274 270 267
297 299 300 302 304 306 308 310 311 311 311 310 310 309 309 309 309 309 309 309 310 310 310 310 310 309 309 309 308 307 306 304 302 299 295 291 287 283 279 274 270 266
298 300 302 304 307 309 310 311 311 310 310 310 310 310 310 310 310 311 311 312 313 313 312 312 312 312 312 312 311 311 310 308 305 301 297 292 286 282 277 273 269 264